Weather History for Tin City, AK

Change the Weather History Date:

Friday, January 4, 2013

  Actual Average Record
Temperature  
Mean Temperature 6 °F -  
Max Temperature 12 °F 7 °F 26 °F (2001)
Min Temperature 0 °F -1 °F -24 °F (2012)
Degree Days  
Heating Degree Days 59    
Moisture  
Dew Point 5 °F    
Average Humidity 92    
Maximum Humidity 100    
Minimum Humidity 85    
Precipitation  
Precipitation 0.00 in - - ()
Sea Level Pressure  
Sea Level Pressure 29.58 in    
Wind  
Wind Speed - (North)    
Max Wind Speed -    
Max Gust Speed -    
Visibility 2 miles    
Events Fog , Snow    
Averages and records for this station are not official NWS values.
T = Trace of Precipitation, MM = Missing Value Source: NWS Daily Summary

Daily Weather History Graph

Daily Weather History Graph

Search for Another Location

Airport:

Trip Planner

Search our weather history database for the weather conditions in past years. The results will help you decide how hot, cold, wet, or windy it might be!

Date:

Astronomy

Jan. 04, 2013 Rise Set
Actual Time 12:23 PM AKST 4:11 PM AKST
Civil Twilight 10:57 AM AKST 5:37 PM AKST
Nautical Twilight 9:44 AM AKST 6:49 PM AKST
Astronomical Twilight 8:41 AM AKST 7:52 PM AKST
Moon 2:23 AM AKST (1/4) 12:38 PM AKST (1/4)
Length of Visible Light 6h 39m
Length of Day
3h 48m
Waning Gibbous, 53% of the Moon is Illuminated
Jan 4
Waning Gibbous
Jan 4
Last Quarter
Jan 11
New
Jan 18
First Quarter
Jan 26
Full

Hourly Weather History & Observations

Time (AKST) Temp. Dew Point Humidity Pressure Visibility Wind Dir Wind Speed Gust Speed Precip Events Conditions
12:30 AM -0.4 °F -2.2 °F 92% 29.56 in 0.2 mi North - - N/A Snow Light Snow
12:55 AM 0.1 °F -2.4 °F 89% 29.56 in 0.2 mi North - - N/A Snow Snow
1:55 AM -0.0 °F -2.7 °F 88% 29.57 in 0.2 mi North - - N/A Snow Snow
2:55 AM 0.1 °F -2.6 °F 88% 29.57 in 0.2 mi North - - N/A Snow Light Snow
3:55 AM 0.1 °F -2.4 °F 89% 29.57 in 0.2 mi North - - N/A Snow Snow
4:55 AM 0.5 °F -2.0 °F 89% 29.57 in 0.2 mi North - - N/A Snow Snow
5:55 AM 1.0 °F -1.3 °F 90% 29.57 in 0.2 mi North - - N/A Snow Heavy Snow
6:55 AM 1.6 °F -0.8 °F 90% 29.57 in 0.2 mi North - - N/A Snow Heavy Snow
7:55 AM 2.3 °F -0.0 °F 90% 29.57 in 0.2 mi North - - N/A Snow Heavy Snow
8:55 AM 2.8 °F 0.7 °F 91% 29.57 in 0.2 mi North - - N/A Snow Snow
9:05 AM 3.2 °F 1.4 °F 92% 29.57 in 0.5 mi North - - N/A Snow Light Snow
9:25 AM 3.2 °F 1.4 °F 92% 29.57 in 0.2 mi North - - N/A Snow Light Snow
9:45 AM 3.2 °F 1.4 °F 92% 29.56 in 0.5 mi North - - N/A Snow Light Snow
9:55 AM 3.4 °F 1.0 °F 90% 29.57 in 0.8 mi North - - N/A Snow Light Snow
10:20 AM 3.2 °F 1.4 °F 92% 29.60 in 1.0 mi North - - N/A Snow Light Snow
10:55 AM 5.0 °F 2.7 °F 90% 29.59 in 0.8 mi North - - N/A Snow Light Snow
11:45 AM 6.8 °F 3.2 °F 85% 29.58 in 1.0 mi North - - N/A Snow Light Snow
11:55 AM 6.4 °F 4.1 °F 90% 29.59 in 1.0 mi North - - N/A Snow Light Snow
12:05 PM 6.8 °F 5.0 °F 92% 29.58 in 0.8 mi North - - N/A Snow Light Snow
12:25 PM 6.8 °F 5.0 °F 92% 29.57 in 1.2 mi North - - N/A Snow Light Snow
12:55 PM 7.5 °F 5.7 °F 92% 29.58 in 1.2 mi North - - N/A Snow Light Snow
1:15 PM 8.6 °F 6.8 °F 92% 29.60 in 4.0 mi North - - N/A Snow Light Snow
1:35 PM 8.6 °F 8.6 °F 100% 29.60 in 2.5 mi North - - N/A Snow Light Snow
1:55 PM 10.0 °F 9.0 °F 95% 29.59 in 2.0 mi North - - N/A Snow Light Snow
2:10 PM 10.4 °F 8.6 °F 92% 29.59 in 1.5 mi North - - N/A Snow Light Snow
2:30 PM 10.4 °F 8.6 °F 92% 29.59 in 0.8 mi North - - N/A Snow Light Snow
2:50 PM 10.4 °F 10.4 °F 100% 29.60 in 1.2 mi North - - N/A Snow Light Snow
2:55 PM 11.5 °F 10.6 °F 96% 29.59 in 1.8 mi North - - N/A Snow Light Snow
3:45 PM 12.2 °F 10.4 °F 92% 29.58 in 0.8 mi North - - N/A Snow Light Snow
3:55 PM 12.4 °F 11.8 °F 98% 29.59 in 1.0 mi North - - N/A Snow Light Snow
4:05 PM 12.2 °F 12.2 °F 100% 29.59 in 0.8 mi North - - N/A Snow Light Snow
4:55 PM 12.2 °F 11.5 °F 97% 29.58 in 1.0 mi North - - N/A Snow Light Snow
5:10 PM 12.2 °F 10.4 °F 92% 29.58 in 1.5 mi North - - N/A Snow Light Snow
5:30 PM 12.2 °F 10.4 °F 92% 29.59 in 5.0 mi North - - N/A   Unknown
5:55 PM 9.5 °F 8.4 °F 95% 29.60 in 10.0 mi North - - N/A   Mostly Cloudy
6:55 PM 8.4 °F 6.8 °F 93% 29.58 in 10.0 mi North - - N/A Snow Light Snow Showers
7:55 PM 6.3 °F 4.6 °F 93% 29.57 in 2.0 mi North - - N/A Snow Light Snow Showers
8:05 PM 6.8 °F 5.0 °F 92% 29.57 in 1.2 mi North - - N/A Snow Light Snow Showers
8:25 PM 6.8 °F 5.0 °F 92% 29.58 in 0.5 mi North - - N/A Fog , Snow Light Snow Showers
8:45 PM 6.8 °F 5.0 °F 92% 29.58 in 0.8 mi North - - N/A Snow Light Snow
8:55 PM 7.0 °F 5.4 °F 93% 29.57 in 0.8 mi North - - N/A Snow Light Snow
9:05 PM 6.8 °F 5.0 °F 92% 29.57 in 1.5 mi North - - N/A Snow Light Snow
9:40 PM 6.8 °F 5.0 °F 92% 29.57 in 0.8 mi North - - N/A Snow Light Snow
9:55 PM 7.3 °F 5.7 °F 93% 29.57 in 2.0 mi North - - N/A Snow Light Snow
10:00 PM 6.8 °F 5.0 °F 92% 29.57 in 1.8 mi North - - N/A Snow Light Snow
10:35 PM 6.8 °F 6.8 °F 100% 29.56 in 2.0 mi North - - N/A Snow Light Snow
10:55 PM 8.6 °F 6.8 °F 92% 29.53 in 4.0 mi North - - N/A Snow Light Snow
11:55 PM 8.8 °F 7.3 °F 94% 29.56 in 10.0 mi North - - N/A Snow Light Snow